Time,TemperatureF,DewpointF,PressureIn,WindDirection,WindDirectionDegrees,WindSpeedMPH,WindSpeedGustMPH,Humidity,HourlyPrecipIn,Conditions,Clouds,dailyrainin,SoftwareType,DateUTC
2013-01-19 08:29:00,30.1,6.3,30.14,NW,305,15.0,15.0,36,0.00,,,0.00,Wunderground v.1.15,2013-01-19 15:29:00,
2013-01-19 08:34:00,30.7,6.2,30.14,NW,306,14.0,19.0,35,0.00,,,0.00,Wunderground v.1.15,2013-01-19 15:34:00,
2013-01-19 08:39:00,31.3,6.1,30.14,NW,309,14.0,18.0,34,0.00,,,0.00,Wunderground v.1.15,2013-01-19 15:39:00,
2013-01-19 08:44:00,32.1,6.2,30.14,NW,311,18.0,20.0,33,0.00,,,0.00,Wunderground v.1.15,2013-01-19 15:44:00,
2013-01-19 08:50:00,32.8,6.1,30.14,NW,308,13.0,15.0,32,0.00,,,0.00,Wunderground v.1.15,2013-01-19 15:50:00,
2013-01-19 08:55:00,33.7,6.2,30.14,WNW,298,11.0,20.0,31,0.00,,,0.00,Wunderground v.1.15,2013-01-19 15:55:00,
2013-01-19 09:00:00,34.3,6.0,30.14,NW,312,15.0,18.0,30,0.00,,,0.00,Wunderground v.1.15,2013-01-19 16:00:00,
2013-01-19 09:05:00,34.9,5.8,30.14,WNW,293,10.0,18.0,29,0.00,,,0.00,Wunderground v.1.15,2013-01-19 16:05:00,
2013-01-19 09:10:00,35.6,6.4,30.14,WNW,288,12.0,14.0,29,0.00,,,0.00,Wunderground v.1.15,2013-01-19 16:10:00,
2013-01-19 09:15:00,36.2,5.4,30.14,WNW,300,11.0,18.0,27,0.00,,,0.00,Wunderground v.1.15,2013-01-19 16:15:00,
2013-01-19 09:20:00,37.2,6.2,30.14,WNW,293,13.0,16.0,27,0.00,,,0.00,Wunderground v.1.15,2013-01-19 16:20:00,
2013-01-19 09:25:00,38.3,5.5,30.14,WNW,290,12.0,25.0,25,0.00,,,0.00,Wunderground v.1.15,2013-01-19 16:25:00,
2013-01-19 09:30:00,39.1,5.3,30.13,NW,314,18.0,19.0,24,0.00,,,0.00,Wunderground v.1.15,2013-01-19 16:30:00,
2013-01-19 09:35:00,39.5,5.6,30.13,West,281,16.0,25.0,24,0.00,,,0.00,Wunderground v.1.15,2013-01-19 16:35:00,
2013-01-19 09:40:00,39.9,5.0,30.13,WNW,292,17.0,21.0,23,0.00,,,0.00,Wunderground v.1.15,2013-01-19 16:40:00,
2013-01-19 09:45:00,40.1,5.2,30.14,WNW,289,24.0,24.0,23,0.00,,,0.00,Wunderground v.1.15,2013-01-19 16:45:00,
2013-01-19 09:51:00,40.5,4.6,30.14,WNW,283,22.0,22.0,22,0.00,,,0.00,Wunderground v.1.15,2013-01-19 16:51:00,
2013-01-19 09:56:00,40.9,4.9,30.14,WNW,285,21.0,26.0,22,0.00,,,0.00,Wunderground v.1.15,2013-01-19 16:56:00,
2013-01-19 10:01:00,41.1,5.1,30.13,West,275,19.0,23.0,22,0.00,,,0.00,Wunderground v.1.15,2013-01-19 17:01:00,
2013-01-19 10:06:00,41.5,5.4,30.13,WNW,288,20.0,25.0,22,0.00,,,0.00,Wunderground v.1.15,2013-01-19 17:06:00,
2013-01-19 10:11:00,41.8,4.6,30.13,West,281,18.0,22.0,21,0.00,,,0.00,Wunderground v.1.15,2013-01-19 17:11:00,
2013-01-19 10:17:00,41.9,3.7,30.14,West,281,24.0,26.0,20,0.00,,,0.00,Wunderground v.1.15,2013-01-19 17:17:00,
2013-01-19 10:22:00,42.2,3.9,30.14,West,276,15.0,27.0,20,0.00,,,0.00,Wunderground v.1.15,2013-01-19 17:22:00,
2013-01-19 10:28:00,42.5,4.2,30.14,WNW,283,24.0,27.0,20,0.00,,,0.00,Wunderground v.1.15,2013-01-19 17:28:00,
2013-01-19 10:33:00,42.8,2.1,30.13,NW,316,22.0,27.0,18,0.00,,,0.00,Wunderground v.1.15,2013-01-19 17:33:00,
2013-01-19 10:38:00,43.1,3.6,30.13,West,266,22.0,27.0,19,0.00,,,0.00,Wunderground v.1.15,2013-01-19 17:38:00,
2013-01-19 10:43:00,43.3,3.7,30.13,WNW,295,24.0,26.0,19,0.00,,,0.00,Wunderground v.1.15,2013-01-19 17:43:00,
2013-01-19 10:48:00,43.6,4.0,30.13,WNW,297,17.0,26.0,19,0.00,,,0.00,Wunderground v.1.15,2013-01-19 17:48:00,
2013-01-19 10:53:00,43.8,4.1,30.13,West,278,25.0,25.0,19,0.00,,,0.00,Wunderground v.1.15,2013-01-19 17:53:00,
2013-01-19 10:58:00,44.2,3.3,30.12,West,279,20.0,26.0,18,0.00,,,0.00,Wunderground v.1.15,2013-01-19 17:58:00,
2013-01-19 11:03:00,44.2,3.3,30.12,West,274,21.0,24.0,18,0.00,,,0.00,Wunderground v.1.15,2013-01-19 18:03:00,
2013-01-19 11:09:00,44.1,3.2,30.12,West,278,19.0,28.0,18,0.00,,,0.00,Wunderground v.1.15,2013-01-19 18:09:00,
2013-01-19 11:14:00,44.2,3.3,30.12,WNW,300,19.0,26.0,18,0.00,,,0.00,Wunderground v.1.15,2013-01-19 18:14:00,
2013-01-19 11:19:00,44.2,3.3,30.12,WNW,287,24.0,26.0,18,0.00,,,0.00,Wunderground v.1.15,2013-01-19 18:19:00,
2013-01-19 11:25:00,44.6,3.6,30.12,WNW,297,19.0,24.0,18,0.00,,,0.00,Wunderground v.1.15,2013-01-19 18:25:00,
2013-01-19 11:30:00,45.1,2.8,30.11,West,273,27.0,27.0,17,0.00,,,0.00,Wunderground v.1.15,2013-01-19 18:30:00,
2013-01-19 11:36:00,45.4,1.7,30.11,WNW,293,24.0,27.0,16,0.00,,,0.00,Wunderground v.1.15,2013-01-19 18:36:00,
2013-01-19 11:41:00,45.4,3.0,30.11,WNW,293,21.0,25.0,17,0.00,,,0.00,Wunderground v.1.15,2013-01-19 18:41:00,
2013-01-19 11:48:00,45.7,2.0,30.11,West,273,26.0,26.0,16,0.00,,,0.00,Wunderground v.1.15,2013-01-19 18:48:00,
2013-01-19 11:53:00,45.7,2.0,30.11,WNW,285,19.0,23.0,16,0.00,,,0.00,Wunderground v.1.15,2013-01-19 18:53:00,
2013-01-19 11:59:00,46.1,2.3,30.09,West,274,25.0,25.0,16,0.00,,,0.00,Wunderground v.1.15,2013-01-19 18:59:00,
2013-01-19 12:04:00,46.2,2.4,30.09,NW,311,26.0,26.0,16,0.00,,,0.00,Wunderground v.1.15,2013-01-19 19:04:00,
2013-01-19 12:09:00,46.1,2.3,30.09,WNW,293,24.0,28.0,16,0.00,,,0.00,Wunderground v.1.15,2013-01-19 19:09:00,
2013-01-19 12:15:00,45.8,2.1,30.09,NW,312,20.0,27.0,16,0.00,,,0.00,Wunderground v.1.15,2013-01-19 19:15:00,
2013-01-19 12:20:00,45.8,3.4,30.09,NW,306,21.0,26.0,17,0.00,,,0.00,Wunderground v.1.15,2013-01-19 19:20:00,
2013-01-19 12:26:00,45.4,3.0,30.09,WNW,302,24.0,27.0,17,0.00,,,0.00,Wunderground v.1.15,2013-01-19 19:26:00,
2013-01-19 12:31:00,45.4,3.0,30.11,WNW,294,20.0,25.0,17,0.00,,,0.00,Wunderground v.1.15,2013-01-19 19:31:00,
2013-01-19 12:37:00,45.4,3.0,30.11,West,276,16.0,29.0,17,0.00,,,0.00,Wunderground v.1.15,2013-01-19 19:37:00,
2013-01-19 12:42:00,45.7,7.9,30.11,WNW,293,27.0,27.0,21,0.00,,,0.00,Wunderground v.1.15,2013-01-19 19:42:00,
2013-01-19 12:49:00,46.1,3.6,30.11,WNW,283,20.0,27.0,17,0.00,,,0.00,Wunderground v.1.15,2013-01-19 19:49:00,
2013-01-19 12:54:00,46.5,3.9,30.11,WNW,299,21.0,23.0,17,0.00,,,0.00,Wunderground v.1.15,2013-01-19 19:54:00,
2013-01-19 12:59:00,46.4,3.9,30.11,NW,307,23.0,24.0,17,0.00,,,0.00,Wunderground v.1.15,2013-01-19 19:59:00,
2013-01-19 13:04:00,46.4,3.9,30.11,NW,305,17.0,24.0,17,0.00,,,0.00,Wunderground v.1.15,2013-01-19 20:04:00,
2013-01-19 13:09:00,46.4,3.9,30.11,WNW,295,20.0,25.0,17,0.00,,,0.00,Wunderground v.1.15,2013-01-19 20:09:00,
2013-01-19 13:14:00,46.7,4.1,30.10,WNW,299,24.0,24.0,17,0.00,,,0.00,Wunderground v.1.15,2013-01-19 20:14:00,
2013-01-19 13:20:00,46.8,4.2,30.10,NW,309,22.0,22.0,17,0.00,,,0.00,Wunderground v.1.15,2013-01-19 20:20:00,
2013-01-19 13:25:00,46.5,3.9,30.10,WNW,284,20.0,27.0,17,0.00,,,0.00,Wunderground v.1.15,2013-01-19 20:25:00,
2013-01-19 13:30:00,46.5,3.9,30.12,North,0,24.0,24.0,17,0.00,,,0.00,Wunderground v.1.15,2013-01-19 20:30:00,
2013-01-19 13:35:00,46.4,3.9,30.12,WNW,282,16.0,26.0,17,0.00,,,0.00,Wunderground v.1.15,2013-01-19 20:35:00,
2013-01-19 13:40:00,46.4,3.9,30.12,NW,304,23.0,24.0,17,0.00,,,0.00,Wunderground v.1.15,2013-01-19 20:40:00,
2013-01-19 13:46:00,46.4,3.9,30.12,WNW,291,18.0,25.0,17,0.00,,,0.00,Wunderground v.1.15,2013-01-19 20:46:00,
2013-01-19 13:51:00,46.4,3.9,30.12,WNW,290,17.0,23.0,17,0.00,,,0.00,Wunderground v.1.15,2013-01-19 20:51:00,
2013-01-19 13:57:00,46.4,3.9,30.12,NW,304,20.0,27.0,17,0.00,,,0.00,Wunderground v.1.15,2013-01-19 20:57:00,
2013-01-19 14:02:00,46.7,4.1,30.12,West,278,16.0,22.0,17,0.00,,,0.00,Wunderground v.1.15,2013-01-19 21:02:00,
2013-01-19 14:07:00,46.8,4.2,30.12,WNW,283,18.0,23.0,17,0.00,,,0.00,Wunderground v.1.15,2013-01-19 21:07:00,
2013-01-19 14:13:00,47.1,4.4,30.11,West,270,18.0,23.0,17,0.00,,,0.00,Wunderground v.1.15,2013-01-19 21:13:00,
2013-01-19 14:18:00,46.7,4.1,30.11,West,276,18.0,26.0,17,0.00,,,0.00,Wunderground v.1.15,2013-01-19 21:18:00,
2013-01-19 14:23:00,46.8,4.2,30.11,WNW,285,13.0,22.0,17,0.00,,,0.00,Wunderground v.1.15,2013-01-19 21:23:00,
2013-01-19 14:29:00,46.5,3.9,30.12,West,281,17.0,22.0,17,0.00,,,0.00,Wunderground v.1.15,2013-01-19 21:29:00,
2013-01-19 14:34:00,46.7,4.1,30.12,WNW,286,17.0,20.0,17,0.00,,,0.00,Wunderground v.1.15,2013-01-19 21:34:00,
2013-01-19 14:39:00,46.4,3.9,30.12,WNW,291,13.0,21.0,17,0.00,,,0.00,Wunderground v.1.15,2013-01-19 21:39:00,
2013-01-19 14:44:00,46.4,3.9,30.14,NW,304,19.0,19.0,17,0.00,,,0.00,Wunderground v.1.15,2013-01-19 21:44:00,
2013-01-19 14:50:00,46.5,3.9,30.14,WNW,297,12.0,16.0,17,0.00,,,0.00,Wunderground v.1.15,2013-01-19 21:50:00,
2013-01-19 14:56:00,46.2,4.9,30.14,WNW,300,14.0,19.0,18,0.00,,,0.00,Wunderground v.1.15,2013-01-19 21:56:00,
2013-01-19 15:01:00,46.1,4.9,30.13,WNW,283,17.0,18.0,18,0.00,,,0.00,Wunderground v.1.15,2013-01-19 22:01:00,
2013-01-19 15:07:00,46.1,3.6,30.13,West,271,15.0,19.0,17,0.00,,,0.00,Wunderground v.1.15,2013-01-19 22:07:00,
2013-01-19 15:13:00,46.1,3.6,30.13,WNW,284,12.0,19.0,17,0.00,,,0.00,Wunderground v.1.15,2013-01-19 22:13:00,
2013-01-19 15:18:00,45.8,4.6,30.14,West,281,15.0,19.0,18,0.00,,,0.00,Wunderground v.1.15,2013-01-19 22:18:00,
2013-01-19 15:23:00,45.5,4.4,30.14,WNW,291,9.0,17.0,18,0.00,,,0.00,Wunderground v.1.15,2013-01-19 22:23:00,
2013-01-19 15:28:00,45.7,4.5,30.16,West,269,14.0,18.0,18,0.00,,,0.00,Wunderground v.1.15,2013-01-19 22:28:00,
2013-01-19 15:33:00,45.5,4.4,30.16,West,265,14.0,18.0,18,0.00,,,0.00,Wunderground v.1.15,2013-01-19 22:33:00,
2013-01-19 15:39:00,44.8,3.8,30.16,West,272,13.0,18.0,18,0.00,,,0.00,Wunderground v.1.15,2013-01-19 22:39:00,
2013-01-19 15:44:00,44.6,3.6,30.17,West,263,11.0,18.0,18,0.00,,,0.00,Wunderground v.1.15,2013-01-19 22:44:00,
2013-01-19 15:49:00,44.3,3.4,30.17,West,275,8.0,18.0,18,0.00,,,0.00,Wunderground v.1.15,2013-01-19 22:49:00,
2013-01-19 15:55:00,43.6,4.0,30.17,West,276,14.0,14.0,19,0.00,,,0.00,Wunderground v.1.15,2013-01-19 22:55:00,
2013-01-19 16:00:00,42.9,3.4,30.18,WNW,286,11.0,12.0,19,0.00,,,0.00,Wunderground v.1.15,2013-01-19 23:00:00,
2013-01-19 16:05:00,42.2,3.9,30.18,WNW,285,9.0,12.0,20,0.00,,,0.00,Wunderground v.1.15,2013-01-19 23:05:00,
2013-01-19 16:10:00,41.6,3.4,30.18,WNW,282,8.0,10.0,20,0.00,,,0.00,Wunderground v.1.15,2013-01-19 23:10:00,
2013-01-19 16:15:00,40.9,3.9,30.19,West,274,13.0,13.0,21,0.00,,,0.00,Wunderground v.1.15,2013-01-19 23:15:00,
2013-01-19 16:20:00,40.2,3.3,30.19,North,0,8.0,11.0,21,0.00,,,0.00,Wunderground v.1.15,2013-01-19 23:20:00,
2013-01-19 16:26:00,39.5,3.7,30.19,WNW,293,9.0,12.0,22,0.00,,,0.00,Wunderground v.1.15,2013-01-19 23:26:00,
2013-01-19 16:31:00,38.9,4.2,30.20,WNW,292,9.0,10.0,23,0.00,,,0.00,Wunderground v.1.15,2013-01-19 23:31:00,
2013-01-19 16:36:00,38.2,4.5,30.20,WNW,295,7.0,11.0,24,0.00,,,0.00,Wunderground v.1.15,2013-01-19 23:36:00,
2013-01-19 16:41:00,37.8,4.2,30.20,WNW,289,9.0,11.0,24,0.00,,,0.00,Wunderground v.1.15,2013-01-19 23:41:00,
2013-01-19 16:47:00,37.0,4.4,30.20,WNW,288,7.0,11.0,25,0.00,,,0.00,Wunderground v.1.15,2013-01-19 23:47:00,
2013-01-19 16:54:00,36.5,4.8,30.20,WNW,300,6.0,11.0,26,0.00,,,0.00,Wunderground v.1.15,2013-01-19 23:54:00,
2013-01-19 16:59:00,35.6,4.8,30.22,WNW,293,7.0,11.0,27,0.00,,,0.00,Wunderground v.1.15,2013-01-19 23:59:00,
2013-01-19 17:05:00,34.9,5.0,30.22,West,280,9.0,9.0,28,0.00,,,0.00,Wunderground v.1.15,2013-01-20 00:05:00,
2013-01-19 17:10:00,34.1,3.5,30.22,WSW,238,6.0,8.0,27,0.00,,,0.00,Wunderground v.1.15,2013-01-20 00:10:00,
2013-01-19 17:16:00,33.2,3.6,30.24,WSW,240,8.0,11.0,28,0.00,,,0.00,Wunderground v.1.15,2013-01-20 00:16:00,
2013-01-19 17:21:00,33.1,4.2,30.24,WSW,248,10.0,11.0,29,0.00,,,0.00,Wunderground v.1.15,2013-01-20 00:21:00,
2013-01-19 17:27:00,32.7,3.9,30.24,WSW,249,10.0,11.0,29,0.00,,,0.00,Wunderground v.1.15,2013-01-20 00:27:00,
2013-01-19 17:32:00,32.2,4.2,30.24,WSW,246,10.0,12.0,30,0.00,,,0.00,Wunderground v.1.15,2013-01-20 00:32:00,
2013-01-19 17:37:00,32.2,4.2,30.24,WSW,250,11.0,12.0,30,0.00,,,0.00,Wunderground v.1.15,2013-01-20 00:37:00,
2013-01-19 17:42:00,32.4,5.1,30.24,WSW,252,11.0,12.0,31,0.00,,,0.00,Wunderground v.1.15,2013-01-20 00:42:00,
2013-01-19 17:47:00,32.8,5.4,30.24,West,264,12.0,15.0,31,0.00,,,0.00,Wunderground v.1.15,2013-01-20 00:47:00,
2013-01-19 17:53:00,33.7,5.5,30.24,WSW,253,11.0,14.0,30,0.00,,,0.00,Wunderground v.1.15,2013-01-20 00:53:00,
2013-01-19 17:58:00,33.4,5.2,30.22,WSW,249,13.0,15.0,30,0.00,,,0.00,Wunderground v.1.15,2013-01-20 00:58:00,
2013-01-19 18:03:00,32.7,6.0,30.22,West,259,11.0,15.0,32,0.00,,,0.00,Wunderground v.1.15,2013-01-20 01:03:00,
2013-01-19 18:08:00,32.7,6.7,30.22,WSW,246,12.0,16.0,33,0.00,,,0.00,Wunderground v.1.15,2013-01-20 01:08:00,
2013-01-19 18:13:00,33.1,7.7,30.22,WSW,256,15.0,16.0,34,0.00,,,0.00,Wunderground v.1.15,2013-01-20 01:13:00,
2013-01-19 18:18:00,33.2,8.5,30.22,West,262,15.0,16.0,35,0.00,,,0.00,Wunderground v.1.15,2013-01-20 01:18:00,
2013-01-19 18:24:00,33.4,8.6,30.22,WSW,257,11.0,16.0,35,0.00,,,0.00,Wunderground v.1.15,2013-01-20 01:24:00,
2013-01-19 18:29:00,33.5,8.7,30.21,SW,235,12.0,18.0,35,0.00,,,0.00,Wunderground v.1.15,2013-01-20 01:29:00,
2013-01-19 18:34:00,33.4,8.6,30.21,WSW,257,13.0,17.0,35,0.00,,,0.00,Wunderground v.1.15,2013-01-20 01:34:00,
2013-01-19 18:39:00,32.9,8.2,30.21,WSW,253,12.0,17.0,35,0.00,,,0.00,Wunderground v.1.15,2013-01-20 01:39:00,
2013-01-19 18:44:00,32.1,8.7,30.23,WSW,251,13.0,15.0,37,0.00,,,0.00,Wunderground v.1.15,2013-01-20 01:44:00,
2013-01-19 18:50:00,32.2,9.4,30.23,West,264,12.0,12.0,38,0.00,,,0.00,Wunderground v.1.15,2013-01-20 01:50:00,
2013-01-19 18:55:00,32.1,9.3,30.23,WSW,253,12.0,14.0,38,0.00,,,0.00,Wunderground v.1.15,2013-01-20 01:55:00,
2013-01-19 19:01:00,32.1,9.3,30.23,WSW,250,12.0,14.0,38,0.00,,,0.00,Wunderground v.1.15,2013-01-20 02:01:00,
2013-01-19 19:06:00,32.4,9.6,30.23,WSW,257,11.0,15.0,38,0.00,,,0.00,Wunderground v.1.15,2013-01-20 02:06:00,
2013-01-19 19:12:00,32.7,9.3,30.23,North,0,9.0,13.0,37,0.00,,,0.00,Wunderground v.1.15,2013-01-20 02:12:00,
2013-01-19 19:17:00,32.5,9.1,30.22,WSW,257,10.0,13.0,37,0.00,,,0.00,Wunderground v.1.15,2013-01-20 02:17:00,
2013-01-19 19:22:00,32.2,8.8,30.22,WSW,255,7.0,11.0,37,0.00,,,0.00,Wunderground v.1.15,2013-01-20 02:22:00,
2013-01-19 19:28:00,32.1,9.3,30.22,West,264,8.0,11.0,38,0.00,,,0.00,Wunderground v.1.15,2013-01-20 02:28:00,
2013-01-19 19:33:00,31.2,9.1,30.21,West,262,8.0,10.0,39,0.00,,,0.00,Wunderground v.1.15,2013-01-20 02:33:00,
2013-01-19 19:38:00,30.6,9.1,30.21,West,261,7.0,10.0,40,0.00,,,0.00,Wunderground v.1.15,2013-01-20 02:38:00,
2013-01-19 19:43:00,30.1,8.7,30.22,West,261,7.0,8.0,40,0.00,,,0.00,Wunderground v.1.15,2013-01-20 02:43:00,
2013-01-19 19:48:00,29.8,8.4,30.22,West,261,5.0,8.0,40,0.00,,,0.00,Wunderground v.1.15,2013-01-20 02:48:00,
2013-01-19 19:54:00,29.7,8.3,30.22,West,260,7.0,7.0,40,0.00,,,0.00,Wunderground v.1.15,2013-01-20 02:54:00,
2013-01-19 19:59:00,29.8,8.4,30.22,West,261,6.0,8.0,40,0.00,,,0.00,Wunderground v.1.15,2013-01-20 02:59:00,
2013-01-19 20:04:00,30.0,9.1,30.22,WNW,284,7.0,8.0,41,0.00,,,0.00,Wunderground v.1.15,2013-01-20 03:04:00,
2013-01-19 20:10:00,30.1,9.2,30.22,WNW,291,7.0,7.0,41,0.00,,,0.00,Wunderground v.1.15,2013-01-20 03:10:00,
2013-01-19 20:16:00,29.7,9.4,30.21,WNW,290,7.0,10.0,42,0.00,,,0.00,Wunderground v.1.15,2013-01-20 03:16:00,
2013-01-19 20:21:00,29.3,9.5,30.21,North,0,5.0,9.0,43,0.00,,,0.00,Wunderground v.1.15,2013-01-20 03:21:00,
2013-01-19 20:26:00,29.3,9.5,30.21,West,271,6.0,9.0,43,0.00,,,0.00,Wunderground v.1.15,2013-01-20 03:26:00,
2013-01-19 20:32:00,29.4,9.6,30.18,North,0,6.0,7.0,43,0.00,,,0.00,Wunderground v.1.15,2013-01-20 03:32:00,
2013-01-19 20:38:00,29.8,9.5,30.18,West,276,5.0,7.0,42,0.00,,,0.00,Wunderground v.1.15,2013-01-20 03:38:00,
2013-01-19 20:43:00,29.7,9.4,30.18,North,0,4.0,7.0,42,0.00,,,0.00,Wunderground v.1.15,2013-01-20 03:43:00,
2013-01-19 20:48:00,29.4,9.6,30.16,West,276,5.0,7.0,43,0.00,,,0.00,Wunderground v.1.15,2013-01-20 03:48:00,
2013-01-19 20:53:00,29.3,9.5,30.16,West,276,6.0,7.0,43,0.00,,,0.00,Wunderground v.1.15,2013-01-20 03:53:00,
2013-01-19 20:58:00,29.4,9.1,30.16,West,276,6.0,7.0,42,0.00,,,0.00,Wunderground v.1.15,2013-01-20 03:58:00,
2013-01-19 21:03:00,29.1,9.4,30.17,North,0,6.0,7.0,43,0.00,,,0.00,Wunderground v.1.15,2013-01-20 04:03:00,
2013-01-19 21:08:00,28.8,9.1,30.17,North,0,6.0,8.0,43,0.00,,,0.00,Wunderground v.1.15,2013-01-20 04:08:00,
2013-01-19 21:13:00,29.0,9.3,30.17,West,266,5.0,7.0,43,0.00,,,0.00,Wunderground v.1.15,2013-01-20 04:13:00,
2013-01-19 21:18:00,29.5,9.2,30.17,West,264,9.0,9.0,42,0.00,,,0.00,Wunderground v.1.15,2013-01-20 04:18:00,
2013-01-19 21:24:00,29.8,8.9,30.17,West,262,7.0,9.0,41,0.00,,,0.00,Wunderground v.1.15,2013-01-20 04:24:00,
2013-01-19 21:29:00,30.0,9.1,30.12,West,266,7.0,9.0,41,0.00,,,0.00,Wunderground v.1.15,2013-01-20 04:29:00,
2013-01-19 21:34:00,30.3,8.8,30.12,North,0,7.0,9.0,40,0.00,,,0.00,Wunderground v.1.15,2013-01-20 04:34:00,
2013-01-19 21:39:00,29.8,8.9,30.12,West,259,7.0,9.0,41,0.00,,,0.00,Wunderground v.1.15,2013-01-20 04:39:00,
2013-01-19 21:44:00,29.5,8.7,30.11,West,259,6.0,8.0,41,0.00,,,0.00,Wunderground v.1.15,2013-01-20 04:44:00,
2013-01-19 21:49:00,29.4,8.0,30.11,West,259,5.0,8.0,40,0.00,,,0.00,Wunderground v.1.15,2013-01-20 04:49:00,
2013-01-19 21:54:00,28.4,8.2,30.11,West,259,4.0,6.0,42,0.00,,,0.00,Wunderground v.1.15,2013-01-20 04:54:00,
2013-01-19 21:59:00,27.8,7.6,30.13,West,259,4.0,6.0,42,0.00,,,0.00,Wunderground v.1.15,2013-01-20 04:59:00,
2013-01-19 22:00:00,27.6,7.5,30.13,West,259,4.0,5.0,42,0.00,,,0.00,Wunderground v.1.15,2013-01-20 05:00:00,
2013-01-19 22:03:00,27.0,8.0,30.13,West,259,4.0,5.0,44,0.00,,,0.00,Wunderground v.1.15,2013-01-20 05:03:00,
2013-01-19 22:04:00,26.9,7.9,30.13,West,259,3.0,5.0,44,0.00,,,0.00,Wunderground v.1.15,2013-01-20 05:04:00,
2013-01-19 22:09:00,26.3,7.8,30.13,West,259,4.0,6.0,45,0.00,,,0.00,Wunderground v.1.15,2013-01-20 05:09:00,
2013-01-19 22:14:00,26.0,7.5,30.14,West,259,4.0,6.0,45,0.00,,,0.00,Wunderground v.1.15,2013-01-20 05:14:00,
2013-01-19 22:19:00,25.6,7.7,30.14,West,259,6.0,7.0,46,0.00,,,0.00,Wunderground v.1.15,2013-01-20 05:19:00,
2013-01-19 22:24:00,25.1,7.7,30.14,West,262,6.0,7.0,47,0.00,,,0.00,Wunderground v.1.15,2013-01-20 05:24:00,
2013-01-19 22:29:00,25.0,8.0,30.14,North,0,6.0,7.0,48,0.00,,,0.00,Wunderground v.1.15,2013-01-20 05:29:00,
2013-01-19 22:34:00,26.3,8.3,30.14,NW,319,3.0,7.0,46,0.00,,,0.00,Wunderground v.1.15,2013-01-20 05:34:00,
2013-01-19 22:39:00,26.1,8.1,30.14,NW,318,5.0,7.0,46,0.00,,,0.00,Wunderground v.1.15,2013-01-20 05:39:00,
2013-01-19 22:44:00,26.1,8.1,30.12,NW,318,4.0,5.0,46,0.00,,,0.00,Wunderground v.1.15,2013-01-20 05:44:00,
2013-01-19 22:49:00,26.1,8.6,30.12,NW,318,5.0,5.0,47,0.00,,,0.00,Wunderground v.1.15,2013-01-20 05:49:00,
2013-01-19 22:54:00,26.6,9.1,30.12,NW,318,4.0,6.0,47,0.00,,,0.00,Wunderground v.1.15,2013-01-20 05:54:00,
2013-01-19 22:59:00,27.3,8.7,30.12,NW,318,5.0,6.0,45,0.00,,,0.00,Wunderground v.1.15,2013-01-20 05:59:00,
2013-01-19 23:04:00,27.3,8.7,30.12,WSW,257,5.0,7.0,45,0.00,,,0.00,Wunderground v.1.15,2013-01-20 06:04:00,
2013-01-19 23:09:00,28.2,9.0,30.12,WSW,256,2.0,7.0,44,0.00,,,0.00,Wunderground v.1.15,2013-01-20 06:09:00,
2013-01-19 23:14:00,28.7,9.0,30.09,WSW,256,2.0,4.0,43,0.00,,,0.00,Wunderground v.1.15,2013-01-20 06:14:00,
2013-01-19 23:19:00,28.8,8.0,30.09,WSW,256,3.0,4.0,41,0.00,,,0.00,Wunderground v.1.15,2013-01-20 06:19:00,
2013-01-19 23:24:00,27.2,8.1,30.09,WSW,256,2.0,5.0,44,0.00,,,0.00,Wunderground v.1.15,2013-01-20 06:24:00,
2013-01-19 23:29:00,26.3,7.8,30.09,WSW,256,3.0,5.0,45,0.00,,,0.00,Wunderground v.1.15,2013-01-20 06:29:00,
2013-01-19 23:34:00,26.4,8.4,30.09,WSW,256,3.0,4.0,46,0.00,,,0.00,Wunderground v.1.15,2013-01-20 06:34:00,
2013-01-19 23:39:00,27.2,8.1,30.09,WSW,256,3.0,4.0,44,0.00,,,0.00,Wunderground v.1.15,2013-01-20 06:39:00,
2013-01-19 23:44:00,27.5,8.4,30.08,WSW,256,4.0,6.0,44,0.00,,,0.00,Wunderground v.1.15,2013-01-20 06:44:00,
2013-01-19 23:49:00,27.0,8.5,30.08,NW,319,7.0,7.0,45,0.00,,,0.00,Wunderground v.1.15,2013-01-20 06:49:00,
2013-01-19 23:54:00,28.7,9.5,30.08,NNW,335,10.0,12.0,44,0.00,,,0.00,Wunderground v.1.15,2013-01-20 06:54:00,